,,Stat5,,Stat1,,Stat2,,Stat3,,Stat4,,Wind1,,Wind1
time,status,PA1M_AVG,status,PR1M_SUM,status,RH1M_AVG,status,SR1M_AVG,status,TA1M_AVG,status,W1dAve1m,status,W1sAve1m
2000-07-04, 00:00:01,VALID,915.651,VALID,0,VALID,98.543,VALID,0.0339617,VALID,18.6782,VALID,1,VALID,1.41306
2000-07-04, 00:01:01,VALID,915.63,VALID,0,VALID,98.6129,VALID,0,VALID,18.6907,VALID,335,VALID,1.04777
2000-07-04, 00:02:01,VALID,915.644,VALID,0,VALID,98.6231,VALID,0.0509425,VALID,18.6807,VALID,343,VALID,0.395123
2000-07-04, 00:03:01,VALID,915.654,VALID,0,VALID,98.632,VALID,0,VALID,18.6974,VALID,81,VALID,0.894215
2000-07-04, 00:04:01,VALID,915.643,VALID,0.2,VALID,98.6485,VALID,0.0169808,VALID,18.7001,VALID,285,VALID,0.607422
2000-07-04, 00:05:01,VALID,915.659,VALID,0,VALID,98.6346,VALID,0.0169808,VALID,18.7038,VALID,293,VALID,0.759046
2000-07-04, 00:06:01,VALID,915.617,VALID,0,VALID,98.6549,VALID,0.0339617,VALID,18.6941,VALID,301,VALID,1.4261
2000-07-04, 00:07:01,VALID,915.637,VALID,0,VALID,98.6803,VALID,0.0339617,VALID,18.7008,VALID,313,VALID,1.33996
2000-07-04, 00:08:01,VALID,915.621,VALID,0,VALID,98.7159,VALID,0.0509425,VALID,18.6971,VALID,233,VALID,0.369243
2000-07-04, 00:09:01,VALID,915.607,VALID,0,VALID,98.749,VALID,0.0339617,VALID,18.72,VALID,292,VALID,0.84734
2000-07-04, 00:10:01,VALID,915.596,VALID,0,VALID,98.7821,VALID,0,VALID,18.717,VALID,254,VALID,0.387747
2000-07-04, 00:11:01,VALID,915.581,VALID,0,VALID,98.824,VALID,0.0169808,VALID,18.7225,VALID,175,VALID,0.41913
2000-07-04, 00:12:00,VALID,915.582,VALID,0,VALID,98.8278,VALID,0.0169808,VALID,18.7396,VALID,316,VALID,1.35625
2000-07-04, 00:13:00,VALID,915.563,VALID,0,VALID,98.8673,VALID,0,VALID,18.7391,VALID,321,VALID,1.33293
2000-07-04, 00:14:00,VALID,915.552,VALID,0,VALID,98.8901,VALID,0.0339617,VALID,18.7458,VALID,322,VALID,1.59044
2000-07-04, 00:15:00,VALID,915.522,VALID,0,VALID,98.9041,VALID,0.0339617,VALID,18.765,VALID,289,VALID,1.56296
2000-07-04, 00:16:00,VALID,915.537,VALID,0,VALID,98.9194,VALID,0.0169808,VALID,18.7712,VALID,34,VALID,1.44489
2000-07-04, 00:17:00,VALID,915.53,VALID,0,VALID,98.9219,VALID,0,VALID,18.7813,VALID,308,VALID,0.756546
2000-07-04, 00:18:00,VALID,915.535,VALID,0,VALID,98.927,VALID,0,VALID,18.7779,VALID,338,VALID,0.662796
2000-07-04, 00:19:00,VALID,915.499,VALID,0,VALID,98.9537,VALID,0.0339617,VALID,18.7876,VALID,10,VALID,0.956814
2000-07-04, 00:20:00,VALID,915.512,VALID,0,VALID,98.9855,VALID,0.0509425,VALID,18.8037,VALID,10,VALID,0.89984
2000-07-04, 00:21:00,VALID,915.469,VALID,0,VALID,98.9919,VALID,0.0339617,VALID,18.8136,VALID,296,VALID,0.464316
2000-07-04, 00:22:00,VALID,915.462,VALID,0,VALID,98.9893,VALID,0.0169808,VALID,18.8069,VALID,225,VALID,0.232812
2000-07-04, 00:23:00,VALID,915.451,VALID,0,VALID,99.0109,VALID,0,VALID,18.8199,VALID,2,VALID,0.578742
2000-07-04, 00:24:00,VALID,915.431,VALID,0,VALID,99.0377,VALID,0,VALID,18.8328,VALID,116,VALID,0.585304
2000-07-04, 00:25:00,VALID,915.435,VALID,0,VALID,99.0377,VALID,0,VALID,18.8429,VALID,125,VALID,0.485197
2000-07-04, 00:26:00,VALID,915.419,VALID,0,VALID,99.0415,VALID,0,VALID,18.8392,VALID,188,VALID,0.48353
2000-07-04, 00:27:00,VALID,915.424,VALID,0,VALID,99.0453,VALID,0,VALID,18.8459,VALID,161,VALID,1.0308
2000-07-04, 00:28:00,VALID,915.438,VALID,0.2,VALID,99.0796,VALID,0,VALID,18.869,VALID,100,VALID,0.799279
2000-07-04, 00:29:00,VALID,915.43,VALID,0.2,VALID,99.0783,VALID,0.0339617,VALID,18.875,VALID,192,VALID,0.424479
2000-07-04, 00:30:00,VALID,915.399,VALID,0.2,VALID,99.0644,VALID,0.0169808,VALID,18.8685,VALID,257,VALID,0.5625
2000-07-04, 00:31:00,VALID,915.402,VALID,0,VALID,99.0758,VALID,0.0169808,VALID,18.8656,VALID,32,VALID,1.18623
2000-07-04, 00:32:00,VALID,915.386,VALID,0.2,VALID,99.1,VALID,0.0339617,VALID,18.8681,VALID,90,VALID,0.930532
2000-07-04, 00:33:00,VALID,915.379,VALID,0,VALID,99.1025,VALID,0.0679233,VALID,18.8849,VALID,84,VALID,0.157306
2000-07-04, 00:34:00,VALID,915.397,VALID,0.2,VALID,99.1101,VALID,0,VALID,18.8879,VALID,177,VALID,0
2000-07-04, 00:35:00,VALID,915.383,VALID,0.2,VALID,99.1089,VALID,0.0339617,VALID,18.8745,VALID,121,VALID,0.429688
2000-07-04, 00:36:00,VALID,915.322,VALID,0.2,VALID,99.1139,VALID,0.0169808,VALID,18.8912,VALID,132,VALID,0.562922
2000-07-04, 00:37:00,VALID,915.324,VALID,0.2,VALID,99.1152,VALID,0,VALID,18.8785,VALID,221,VALID,0.557813
2000-07-04, 00:38:00,VALID,915.321,VALID,0.2,VALID,99.1216,VALID,0.0339617,VALID,18.8683,VALID,211,VALID,0.895559
2000-07-04, 00:39:00,VALID,915.307,VALID,0.2,VALID,99.1267,VALID,0.0339617,VALID,18.8653,VALID,312,VALID,0.736909
2000-07-04, 00:40:00,VALID,915.278,VALID,0,VALID,99.1406,VALID,0.0169808,VALID,18.8589,VALID,344,VALID,0.667146
2000-07-04, 00:41:00,VALID,915.254,VALID,0.2,VALID,99.1597,VALID,-0.0509425,VALID,18.86,VALID,95,VALID,2.6136
2000-07-04, 00:42:00,VALID,915.213,VALID,0,VALID,99.1724,VALID,-0.0679233,VALID,18.8727,VALID,357,VALID,1.90313
2000-07-04, 00:43:00,VALID,915.259,VALID,0,VALID,99.175,VALID,-0.0679233,VALID,18.8635,VALID,313,VALID,1.32352
2000-07-04, 00:44:00,VALID,915.258,VALID,0,VALID,99.2004,VALID,-0.0679233,VALID,18.8797,VALID,106,VALID,1.57978
2000-07-04, 00:45:00,VALID,915.264,VALID,0,VALID,99.2055,VALID,-0.0679233,VALID,18.8926,VALID,104,VALID,0.865349
2000-07-04, 00:46:00,VALID,915.282,VALID,0,VALID,99.2004,VALID,-0.0679233,VALID,18.876,VALID,195,VALID,0.866132
2000-07-04, 00:47:00,VALID,915.276,VALID,0,VALID,99.1991,VALID,-0.0339617,VALID,18.873,VALID,114,VALID,1.73226
2000-07-04, 00:48:00,VALID,915.221,VALID,0,VALID,99.2106,VALID,-0.0679233,VALID,18.8697,VALID,279,VALID,2.144
2000-07-04, 00:49:00,VALID,915.216,VALID,0,VALID,99.2347,VALID,-0.0679233,VALID,18.8633,VALID,53,VALID,1.51563
2000-07-04, 00:50:00,VALID,915.23,VALID,0,VALID,99.2742,VALID,-0.0849042,VALID,18.8827,VALID,277,VALID,1.49459
2000-07-04, 00:51:00,VALID,915.229,VALID,0,VALID,99.2971,VALID,-0.0849042,VALID,18.8859,VALID,81,VALID,1.14949
2000-07-04, 00:52:00,VALID,915.198,VALID,0,VALID,99.292,VALID,-0.0849042,VALID,18.8794,VALID,148,VALID,1.36027
2000-07-04, 00:53:00,VALID,915.188,VALID,0,VALID,99.3149,VALID,-0.0849042,VALID,18.8797,VALID,99,VALID,1.40584
2000-07-04, 00:54:00,VALID,915.184,VALID,0,VALID,99.3238,VALID,-0.0509425,VALID,18.8859,VALID,89,VALID,0.75
2000-07-04, 00:55:00,VALID,915.18,VALID,0,VALID,99.3416,VALID,-0.0849042,VALID,18.8891,VALID,138,VALID,0.790502
2000-07-04, 00:56:00,VALID,915.175,VALID,0,VALID,99.3339,VALID,0,VALID,18.8778,VALID,182,VALID,0.574535
2000-07-04, 00:57:00,VALID,915.152,VALID,0,VALID,99.353,VALID,0.0339617,VALID,18.8775,VALID,226,VALID,0.504241
2000-07-04, 00:58:00,VALID,915.138,VALID,0,VALID,99.3695,VALID,0,VALID,18.8842,VALID,280,VALID,1.11378
2000-07-04, 00:59:00,VALID,915.097,VALID,0,VALID,99.3759,VALID,0,VALID,18.881,VALID,337,VALID,1.067
2000-07-04, 01:00:00,VALID,915.106,VALID,0,VALID,99.3759,VALID,0.0169808,VALID,18.8745,VALID,344,VALID,1.36903
2000-07-04, 01:01:00,VALID,915.118,VALID,0,VALID,99.395,VALID,0,VALID,18.8941,VALID,353,VALID,0.592272
2000-07-04, 01:02:00,VALID,915.108,VALID,0,VALID,99.4001,VALID,0.0169808,VALID,18.8944,VALID,146,VALID,0.963471
2000-07-04, 01:03:00,VALID,915.078,VALID,0,VALID,99.3912,VALID,0.0169808,VALID,18.8877,VALID,216,VALID,0.827914
2000-07-04, 01:04:00,VALID,915.087,VALID,0,VALID,99.4102,VALID,0.0339617,VALID,18.8874,VALID,72,VALID,0.844835
2000-07-04, 01:05:00,VALID,915.08,VALID,0,VALID,99.4204,VALID,0.0339617,VALID,18.8842,VALID,258,VALID,0.872396
2000-07-04, 01:06:00,VALID,915.1,VALID,0,VALID,99.4051,VALID,0.0169808,VALID,18.8743,VALID,189,VALID,0.823691
2000-07-04, 01:07:00,VALID,915.075,VALID,0,VALID,99.4229,VALID,0.0169808,VALID,18.8874,VALID,86,VALID,0.792634
2000-07-04, 01:08:00,VALID,915.067,VALID,0,VALID,99.4382,VALID,0.0339617,VALID,18.8874,VALID,269,VALID,0.622944
2000-07-04, 01:09:00,VALID,915.064,VALID,0,VALID,99.4382,VALID,0.0169808,VALID,18.8909,VALID,202,VALID,0.375
2000-07-04, 01:10:00,VALID,915.043,VALID,0,VALID,99.4471,VALID,0.0169808,VALID,18.8904,VALID,133,VALID,0.428248
2000-07-04, 01:11:00,VALID,915.04,VALID,0,VALID,99.4496,VALID,0.0339617,VALID,18.8902,VALID,345,VALID,1.20207
2000-07-04, 01:12:00,VALID,914.995,VALID,0,VALID,99.4624,VALID,0.0339617,VALID,18.9068,VALID,96,VALID,0.834375
2000-07-04, 01:13:00,VALID,915.038,VALID,0,VALID,99.4649,VALID,0,VALID,18.9068,VALID,175,VALID,0.698117
2000-07-04, 01:14:00,VALID,914.944,VALID,0,VALID,99.4687,VALID,-0.0169808,VALID,18.9004,VALID,86,VALID,1.866
2000-07-04, 01:15:00,VALID,914.884,VALID,0,VALID,99.4624,VALID,0,VALID,18.9008,VALID,300,VALID,1.12316
2000-07-04, 01:16:00,VALID,914.94,VALID,0,VALID,99.4624,VALID,0.0509425,VALID,18.884,VALID,76,VALID,1.70418
2000-07-04, 01:17:00,VALID,914.897,VALID,0,VALID,99.4776,VALID,0.0509425,VALID,18.8971,VALID,18,VALID,0.794341
2000-07-04, 01:18:00,VALID,914.918,VALID,0,VALID,99.4713,VALID,0.0849042,VALID,18.8803,VALID,285,VALID,1.04033
2000-07-04, 01:19:00,VALID,914.932,VALID,0,VALID,99.4535,VALID,0.0509425,VALID,18.8874,VALID,212,VALID,0.818793
2000-07-04, 01:20:00,VALID,914.932,VALID,0,VALID,99.4535,VALID,0.0509425,VALID,18.8807,VALID,261,VALID,0.66266
2000-07-04, 01:21:00,VALID,914.951,VALID,0,VALID,99.4624,VALID,0.0679233,VALID,18.884,VALID,241,VALID,0.0688345
2000-07-04, 01:22:00,VALID,914.967,VALID,0,VALID,99.4547,VALID,0.0679233,VALID,18.8974,VALID,185,VALID,0.479911
2000-07-04, 01:23:00,VALID,914.933,VALID,0,VALID,99.4649,VALID,0.0169808,VALID,18.8907,VALID,122,VALID,1.03598
2000-07-04, 01:24:00,VALID,914.968,VALID,0,VALID,99.4738,VALID,0.0679233,VALID,18.9038,VALID,237,VALID,0.884079
2000-07-04, 01:25:00,VALID,914.981,VALID,0,VALID,99.4675,VALID,0.0169808,VALID,18.9008,VALID,196,VALID,0.610403
2000-07-04, 01:26:00,VALID,914.997,VALID,0.2,VALID,99.47,VALID,-0.0679233,VALID,18.8988,VALID,277,VALID,0.913218
2000-07-04, 01:27:00,VALID,914.961,VALID,0,VALID,99.47,VALID,-0.0339617,VALID,18.8819,VALID,358,VALID,1.56875
2000-07-04, 01:28:00,VALID,915.007,VALID,0,VALID,99.4725,VALID,-0.0849042,VALID,18.8824,VALID,345,VALID,1.20393
2000-07-04, 01:29:00,VALID,915.007,VALID,0,VALID,99.4751,VALID,-0.0849042,VALID,18.8725,VALID,325,VALID,1.05611
2000-07-04, 01:30:00,VALID,915.014,VALID,0,VALID,99.4687,VALID,-0.0679233,VALID,18.8824,VALID,36,VALID,1.05905
2000-07-04, 01:31:00,VALID,915.001,VALID,0,VALID,99.4713,VALID,-0.0849042,VALID,18.8819,VALID,15,VALID,0.803632
2000-07-04, 01:32:00,VALID,914.993,VALID,0,VALID,99.4725,VALID,-0.0849042,VALID,18.8953,VALID,134,VALID,0.608108
2000-07-04, 01:33:00,VALID,914.956,VALID,0,VALID,99.4725,VALID,-0.0849042,VALID,18.8792,VALID,245,VALID,0.160895
2000-07-04, 01:34:00,VALID,914.955,VALID,0,VALID,99.4649,VALID,-0.101885,VALID,18.8923,VALID,258,VALID,0.232205
2000-07-04, 01:35:00,VALID,914.938,VALID,0,VALID,99.456,VALID,-0.101885,VALID,18.8861,VALID,326,VALID,0.823518
2000-07-04, 01:36:00,VALID,914.916,VALID,0,VALID,99.4598,VALID,-0.101885,VALID,18.8801,VALID,328,VALID,0.340794
2000-07-04, 01:37:00,VALID,914.878,VALID,0,VALID,99.4751,VALID,-0.101885,VALID,18.8831,VALID,352,VALID,0.499554
2000-07-04, 01:38:00,VALID,914.873,VALID,0,VALID,99.4598,VALID,-0.0849042,VALID,18.86,VALID,309,VALID,0.983758
2000-07-04, 01:39:00,VALID,914.81,VALID,0,VALID,99.4471,VALID,-0.101885,VALID,18.8536,VALID,45,VALID,0.383024
2000-07-04, 01:40:00,VALID,914.806,VALID,0,VALID,99.4547,VALID,-0.101885,VALID,18.8499,VALID,47,VALID,0.121299
2000-07-04, 01:41:00,VALID,914.83,VALID,0,VALID,99.4458,VALID,-0.0679233,VALID,18.8402,VALID,351,VALID,0.452492
2000-07-04, 01:42:00,VALID,914.816,VALID,0,VALID,99.4433,VALID,-0.0849042,VALID,18.8335,VALID,105,VALID,0.783036
2000-07-04, 01:43:00,VALID,914.812,VALID,0,VALID,99.4408,VALID,-0.0509425,VALID,18.831,VALID,329,VALID,0.100962
2000-07-04, 01:44:00,VALID,914.834,VALID,0,VALID,99.428,VALID,-0.0679233,VALID,18.8282,VALID,8,VALID,0.252841
2000-07-04, 01:45:00,VALID,914.839,VALID,0,VALID,99.4331,VALID,-0.0679233,VALID,18.8044,VALID,74,VALID,0.878217
2000-07-04, 01:46:00,VALID,914.79,VALID,0,VALID,99.4255,VALID,-0.0849042,VALID,18.818,VALID,97,VALID,1.3978
2000-07-04, 01:47:00,VALID,914.8,VALID,0,VALID,99.4306,VALID,-0.0849042,VALID,18.8118,VALID,313,VALID,0.463682
2000-07-04, 01:48:00,VALID,914.774,VALID,0,VALID,99.4166,VALID,-0.101885,VALID,18.8049,VALID,339,VALID,0.662373
2000-07-04, 01:49:00,VALID,914.758,VALID,0,VALID,99.4128,VALID,-0.0679233,VALID,18.7855,VALID,50,VALID,1.14597
2000-07-04, 01:50:00,VALID,914.736,VALID,0,VALID,99.409,VALID,-0.0849042,VALID,18.7793,VALID,64,VALID,1.28886
2000-07-04, 01:51:00,VALID,914.706,VALID,0,VALID,99.3873,VALID,-0.0679233,VALID,18.7597,VALID,17,VALID,0.774071
2000-07-04, 01:52:00,VALID,914.7,VALID,0,VALID,99.3734,VALID,-0.0679233,VALID,18.7562,VALID,311,VALID,0.807143
2000-07-04, 01:53:00,VALID,914.685,VALID,0,VALID,99.367,VALID,-0.0679233,VALID,18.7564,VALID,326,VALID,0.969161
2000-07-04, 01:54:00,VALID,914.664,VALID,0,VALID,99.3581,VALID,-0.0849042,VALID,18.747,VALID,58,VALID,0.604096
2000-07-04, 01:55:00,VALID,914.643,VALID,0,VALID,99.3339,VALID,-0.101885,VALID,18.7202,VALID,67,VALID,1.27282
2000-07-04, 01:56:00,VALID,914.614,VALID,0,VALID,99.3187,VALID,0,VALID,18.7207,VALID,143,VALID,1.10959
2000-07-04, 01:57:00,VALID,914.635,VALID,0,VALID,99.3047,VALID,0,VALID,18.7343,VALID,359,VALID,0.747098
2000-07-04, 01:58:00,VALID,914.627,VALID,0,VALID,99.2742,VALID,-0.0169808,VALID,18.7343,VALID,139,VALID,0.461739
2000-07-04, 01:59:00,VALID,914.618,VALID,0,VALID,99.2475,VALID,-0.0509425,VALID,18.7211,VALID,108,VALID,0.22822
2000-07-04, 02:00:00,VALID,914.604,VALID,0,VALID,99.2398,VALID,0,VALID,18.7308,VALID,100,VALID,0.277803
2000-07-04, 02:01:00,VALID,914.609,VALID,0,VALID,99.2182,VALID,-0.0169808,VALID,18.7244,VALID,131,VALID,0
2000-07-04, 02:02:00,VALID,914.584,VALID,0,VALID,99.1953,VALID,-0.0169808,VALID,18.7142,VALID,94,VALID,0.513302
2000-07-04, 02:03:00,VALID,914.569,VALID,0,VALID,99.1089,VALID,-0.0339617,VALID,18.7018,VALID,124,VALID,1.05236
2000-07-04, 02:04:00,VALID,914.553,VALID,0,VALID,99.0402,VALID,-0.0509425,VALID,18.7045,VALID,296,VALID,0.6773
2000-07-04, 02:05:00,VALID,914.586,VALID,0,VALID,98.9728,VALID,-0.0339617,VALID,18.7276,VALID,234,VALID,0.477364
2000-07-04, 02:06:00,VALID,914.581,VALID,0,VALID,98.8952,VALID,-0.0339617,VALID,18.7306,VALID,252,VALID,0.755912
2000-07-04, 02:07:00,VALID,914.595,VALID,0,VALID,98.8151,VALID,-0.0169808,VALID,18.7271,VALID,360,VALID,0.605804
2000-07-04, 02:08:00,VALID,914.579,VALID,0,VALID,98.7019,VALID,-0.0169808,VALID,18.7569,VALID,94,VALID,0.783717
2000-07-04, 02:09:00,VALID,914.557,VALID,0,VALID,98.5799,VALID,-0.0679233,VALID,18.7468,VALID,71,VALID,0.214949
2000-07-04, 02:10:00,VALID,914.548,VALID,0,VALID,98.4438,VALID,-0.0339617,VALID,18.7564,VALID,88,VALID,0.258018
2000-07-04, 02:11:00,VALID,914.542,VALID,0,VALID,98.3179,VALID,-0.0169808,VALID,18.7438,VALID,140,VALID,0.369721
2000-07-04, 02:12:00,VALID,914.542,VALID,0,VALID,98.2098,VALID,-0.0509425,VALID,18.7472,VALID,185,VALID,0.102679
2000-07-04, 02:13:00,VALID,914.533,VALID,0,VALID,98.1234,VALID,-0.0169808,VALID,18.7435,VALID,168,VALID,0.780449
2000-07-04, 02:14:00,VALID,914.498,VALID,0,VALID,97.953,VALID,-0.0339617,VALID,18.7343,VALID,238,VALID,1.18537
2000-07-04, 02:15:00,VALID,914.466,VALID,0,VALID,97.8106,VALID,-0.0339617,VALID,18.7534,VALID,184,VALID,0.446002
2000-07-04, 02:16:00,VALID,914.45,VALID,0,VALID,97.6503,VALID,-0.0169808,VALID,18.75,VALID,255,VALID,0.497255
2000-07-04, 02:17:00,VALID,914.417,VALID,0,VALID,97.5791,VALID,-0.0169808,VALID,18.7537,VALID,354,VALID,0.30152
2000-07-04, 02:18:00,VALID,914.38,VALID,0,VALID,97.5855,VALID,-0.0169808,VALID,18.7341,VALID,78,VALID,0.00211149
2000-07-04, 02:19:00,VALID,914.355,VALID,0,VALID,97.5855,VALID,-0.0509425,VALID,18.7149,VALID,125,VALID,0
2000-07-04, 02:20:00,VALID,914.343,VALID,0,VALID,97.5791,VALID,-0.0509425,VALID,18.6953,VALID,184,VALID,0
2000-07-04, 02:21:00,VALID,914.318,VALID,0,VALID,97.5817,VALID,-0.0169808,VALID,18.6662,VALID,123,VALID,0
2000-07-04, 02:22:00,VALID,914.306,VALID,0,VALID,97.6452,VALID,-0.0169808,VALID,18.6466,VALID,194,VALID,0
2000-07-04, 02:23:00,VALID,914.314,VALID,0,VALID,97.6923,VALID,-0.0169808,VALID,18.6143,VALID,149,VALID,0
2000-07-04, 02:24:00,VALID,914.298,VALID,0,VALID,97.7584,VALID,0,VALID,18.6079,VALID,153,VALID,0
2000-07-04, 02:25:00,VALID,914.297,VALID,0,VALID,97.7978,VALID,0,VALID,18.6019,VALID,113,VALID,0
2000-07-04, 02:26:00,VALID,914.272,VALID,0,VALID,97.822,VALID,0,VALID,18.5788,VALID,93,VALID,0
2000-07-04, 02:27:00,VALID,914.294,VALID,0,VALID,97.8385,VALID,0,VALID,18.5661,VALID,114,VALID,0
2000-07-04, 02:28:00,VALID,914.277,VALID,0,VALID,97.8487,VALID,0,VALID,18.55,VALID,126,VALID,0
2000-07-04, 02:29:00,VALID,914.261,VALID,0,VALID,97.8754,VALID,0,VALID,18.5338,VALID,126,VALID,0
2000-07-04, 02:30:00,VALID,914.245,VALID,0,VALID,97.9453,VALID,0,VALID,18.5239,VALID,115,VALID,0
2000-07-04, 02:31:00,VALID,914.231,VALID,0,VALID,98.0305,VALID,-0.0169808,VALID,18.5144,VALID,88,VALID,0
2000-07-04, 02:32:00,VALID,914.244,VALID,0,VALID,98.0916,VALID,-0.0339617,VALID,18.4983,VALID,115,VALID,0
2000-07-04, 02:33:00,VALID,914.253,VALID,0,VALID,98.1323,VALID,-0.0339617,VALID,18.4886,VALID,167,VALID,0
2000-07-04, 02:34:00,VALID,914.266,VALID,0,VALID,98.1946,VALID,0,VALID,18.4824,VALID,201,VALID,0
2000-07-04, 02:35:00,VALID,914.266,VALID,0,VALID,98.1933,VALID,-0.0339617,VALID,18.4662,VALID,192,VALID,0
2000-07-04, 02:36:00,VALID,914.255,VALID,0,VALID,98.2251,VALID,-0.0169808,VALID,18.4466,VALID,169,VALID,0
2000-07-04, 02:37:00,VALID,914.247,VALID,0,VALID,98.2696,VALID,-0.0679233,VALID,18.4335,VALID,169,VALID,0
2000-07-04, 02:38:00,VALID,914.257,VALID,0,VALID,98.3014,VALID,0,VALID,18.4374,VALID,166,VALID,0
2000-07-04, 02:39:00,VALID,914.24,VALID,0,VALID,98.3561,VALID,0,VALID,18.4141,VALID,97,VALID,0.0565878
2000-07-04, 02:40:00,VALID,914.223,VALID,0,VALID,98.4489,VALID,-0.0339617,VALID,18.4275,VALID,348,VALID,0.316406
2000-07-04, 02:41:00,VALID,914.214,VALID,0,VALID,98.5265,VALID,0,VALID,18.4533,VALID,95,VALID,0.907095
2000-07-04, 02:42:00,VALID,914.212,VALID,0,VALID,98.5786,VALID,0,VALID,18.4531,VALID,94,VALID,0.431473
2000-07-04, 02:43:00,VALID,914.188,VALID,0,VALID,98.6104,VALID,-0.0169808,VALID,18.4563,VALID,112,VALID,0.47476
2000-07-04, 02:44:00,VALID,914.176,VALID,0,VALID,98.6511,VALID,-0.0169808,VALID,18.4757,VALID,63,VALID,0.23982
2000-07-04, 02:45:00,VALID,914.143,VALID,0,VALID,98.6485,VALID,-0.0339617,VALID,18.4789,VALID,106,VALID,0.424862
2000-07-04, 02:46:00,VALID,914.134,VALID,0,VALID,98.5989,VALID,-0.0509425,VALID,18.4632,VALID,90,VALID,0.634079
2000-07-04, 02:47:00,VALID,914.123,VALID,0,VALID,98.59,VALID,-0.0509425,VALID,18.4402,VALID,99,VALID,1.01668
2000-07-04, 02:48:00,VALID,914.107,VALID,0,VALID,98.6473,VALID,-0.0509425,VALID,18.4404,VALID,92,VALID,1.09776
2000-07-04, 02:49:00,VALID,914.093,VALID,0,VALID,98.6943,VALID,-0.0339617,VALID,18.4535,VALID,87,VALID,0.844401
2000-07-04, 02:50:00,VALID,914.087,VALID,0,VALID,98.7414,VALID,0,VALID,18.4625,VALID,105,VALID,0.523638
2000-07-04, 02:51:00,VALID,914.091,VALID,0,VALID,98.7719,VALID,-0.0339617,VALID,18.4727,VALID,108,VALID,0
2000-07-04, 02:52:00,VALID,914.111,VALID,0,VALID,98.7846,VALID,-0.0169808,VALID,18.4854,VALID,97,VALID,0.833259
2000-07-04, 02:53:00,VALID,914.098,VALID,0,VALID,98.777,VALID,-0.0169808,VALID,18.4893,VALID,87,VALID,0.846423
2000-07-04, 02:54:00,VALID,914.089,VALID,0,VALID,98.7655,VALID,0,VALID,18.4789,VALID,75,VALID,0.405828
2000-07-04, 02:55:00,VALID,914.09,VALID,0,VALID,98.7528,VALID,0,VALID,18.4789,VALID,112,VALID,0.552632
2000-07-04, 02:56:00,VALID,914.075,VALID,0,VALID,98.7604,VALID,0,VALID,18.4761,VALID,109,VALID,0.751267
2000-07-04, 02:57:00,VALID,914.088,VALID,0,VALID,98.7579,VALID,-0.0849042,VALID,18.4727,VALID,285,VALID,0.185268
2000-07-04, 02:58:00,VALID,914.079,VALID,0,VALID,98.7986,VALID,-0.0339617,VALID,18.4761,VALID,210,VALID,0.0645032
2000-07-04, 02:59:00,VALID,914.078,VALID,0,VALID,98.7884,VALID,-0.0339617,VALID,18.4729,VALID,184,VALID,0
2000-07-04, 03:00:00,VALID,914.069,VALID,0,VALID,98.7922,VALID,-0.0339617,VALID,18.4729,VALID,103,VALID,0.538143
2000-07-04, 03:01:00,VALID,914.06,VALID,0,VALID,98.7846,VALID,-0.0679233,VALID,18.4761,VALID,325,VALID,0.449113
2000-07-04, 03:02:00,VALID,914.06,VALID,0,VALID,98.8049,VALID,-0.0679233,VALID,18.4725,VALID,274,VALID,0.236064
2000-07-04, 03:03:00,VALID,914.053,VALID,0,VALID,98.8189,VALID,-0.0849042,VALID,18.4791,VALID,256,VALID,0
2000-07-04, 03:04:00,VALID,914.051,VALID,0,VALID,98.8291,VALID,-0.0169808,VALID,18.4921,VALID,164,VALID,0.0507813
2000-07-04, 03:05:00,VALID,914.057,VALID,0,VALID,98.8278,VALID,-0.0509425,VALID,18.4787,VALID,54,VALID,0.416466
2000-07-04, 03:06:00,VALID,914.074,VALID,0,VALID,98.8227,VALID,-0.0509425,VALID,18.4856,VALID,85,VALID,0.569257
2000-07-04, 03:07:00,VALID,914.077,VALID,0,VALID,98.8037,VALID,-0.0339617,VALID,18.4755,VALID,107,VALID,0.682813
2000-07-04, 03:08:00,VALID,914.096,VALID,0,VALID,98.7948,VALID,-0.0169808,VALID,18.4727,VALID,99,VALID,0.513363
2000-07-04, 03:09:00,VALID,914.097,VALID,0,VALID,98.7973,VALID,-0.0339617,VALID,18.4561,VALID,104,VALID,0.543497
2000-07-04, 03:10:00,VALID,914.108,VALID,0,VALID,98.791,VALID,-0.0339617,VALID,18.4598,VALID,112,VALID,0
2000-07-04, 03:11:00,VALID,914.109,VALID,0,VALID,98.8037,VALID,-0.0509425,VALID,18.4464,VALID,109,VALID,0
2000-07-04, 03:12:00,VALID,914.104,VALID,0,VALID,98.8342,VALID,-0.0509425,VALID,18.4531,VALID,81,VALID,0
2000-07-04, 03:13:00,VALID,914.12,VALID,0,VALID,98.8723,VALID,0,VALID,18.4722,VALID,59,VALID,0
2000-07-04, 03:14:00,VALID,914.122,VALID,0,VALID,98.8952,VALID,-0.0679233,VALID,18.4856,VALID,90,VALID,0.0137311
2000-07-04, 03:15:00,VALID,914.117,VALID,0,VALID,98.9258,VALID,-0.0679233,VALID,18.5018,VALID,90,VALID,1.08157
2000-07-04, 03:16:00,VALID,914.111,VALID,0,VALID,98.9168,VALID,-0.0849042,VALID,18.5149,VALID,102,VALID,0.354519
2000-07-04, 03:17:00,VALID,914.107,VALID,0,VALID,98.927,VALID,-0.0679233,VALID,18.5112,VALID,90,VALID,0.329603
2000-07-04, 03:18:00,VALID,914.083,VALID,0,VALID,98.9385,VALID,-0.0509425,VALID,18.5375,VALID,39,VALID,0.975296
2000-07-04, 03:19:00,VALID,914.065,VALID,0,VALID,98.9245,VALID,-0.0509425,VALID,18.5698,VALID,350,VALID,0.22526
2000-07-04, 03:20:00,VALID,914.048,VALID,0,VALID,98.9054,VALID,-0.0509425,VALID,18.5758,VALID,281,VALID,0.35617
2000-07-04, 03:21:00,VALID,914.034,VALID,0,VALID,98.8749,VALID,-0.0339617,VALID,18.5862,VALID,303,VALID,0.571579
2000-07-04, 03:22:00,VALID,914.039,VALID,0,VALID,98.824,VALID,-0.0339617,VALID,18.579,VALID,301,VALID,0.104018
2000-07-04, 03:23:00,VALID,914.017,VALID,0,VALID,98.7948,VALID,-0.0339617,VALID,18.5825,VALID,345,VALID,0.0721628
2000-07-04, 03:24:00,VALID,914.009,VALID,0,VALID,98.763,VALID,-0.0679233,VALID,18.576,VALID,77,VALID,0.553632
2000-07-04, 03:25:00,VALID,914.017,VALID,0,VALID,98.7337,VALID,-0.0339617,VALID,18.573,VALID,89,VALID,0.926604
2000-07-04, 03:26:00,VALID,914.013,VALID,0,VALID,98.7465,VALID,-0.0509425,VALID,18.5562,VALID,90,VALID,0.452069
2000-07-04, 03:27:00,VALID,914.016,VALID,0,VALID,98.749,VALID,-0.0509425,VALID,18.553,VALID,111,VALID,0.120089
2000-07-04, 03:28:00,VALID,914.012,VALID,0,VALID,98.7426,VALID,-0.0339617,VALID,18.5502,VALID,56,VALID,0.8748
2000-07-04, 03:29:00,VALID,914.015,VALID,0,VALID,98.7096,VALID,-0.0169808,VALID,18.5532,VALID,291,VALID,0.315341
2000-07-04, 03:30:00,VALID,914.02,VALID,0,VALID,98.6918,VALID,-0.0169808,VALID,18.5567,VALID,302,VALID,0.208869
2000-07-04, 03:31:00,VALID,914.039,VALID,0,VALID,98.6676,VALID,-0.0679233,VALID,18.5569,VALID,299,VALID,0
2000-07-04, 03:32:00,VALID,914.057,VALID,0,VALID,98.6091,VALID,-0.0339617,VALID,18.5278,VALID,289,VALID,0.171242
2000-07-04, 03:33:00,VALID,914.058,VALID,0,VALID,98.5773,VALID,-0.0339617,VALID,18.5274,VALID,303,VALID,0.0732686
2000-07-04, 03:34:00,VALID,914.064,VALID,0,VALID,98.5583,VALID,-0.0849042,VALID,18.5241,VALID,54,VALID,0.317925
2000-07-04, 03:35:00,VALID,914.059,VALID,0,VALID,98.5443,VALID,-0.0169808,VALID,18.5239,VALID,120,VALID,0.0657051